TAUSAT-1 (47926 NORAD) Tracking and Keplerian Element Data

This shows tracking and keplerian element data for the satellite.

Feedback or suggestion? Click here.




ElementValue
Catalog47926
NameTAUSAT-1
Epoch Orbit1557
Epoch Day173.62067268
Epoch Year2021
RAAN314.2166
Inclination51.6426
Eccentricity0.0003048
Argument of Perigee58.6764
Mean Anonmoly301.4524
Mean Motion15.5234505
Decay Rate0.00011059
L11 47926U 98067SC 21173.62067268 .00011059 00000-0 18551-3 0 9998
L22 47926 51.6426 314.2166 0003048 58.6764 301.4524 15.52345050 15575

Live tracking and technical data element details for TAUSAT-1 (NORAD 47926). TAUSAT-1 can be tracked NOW for your location showing map with azimuth and elevation plus other details from your city location.

Track the satellite on the map from your city or location and see movement details for azimuth, elevation, latitude, longitude, range, height, and movement on the map or in text.







IsCatalogInMostPopularTable: catalog: 47926, numindb: 43
Update: records affected: 1



GetName: 47926 TAUSAT-1

Hit Count: updated at: Thu, 24 Jun 2021 03:02:27 GMT